When you browse on this site, cookies collect data to enhance your experience and personalize the content and advertising you see.
Visit our Privacy Policy to learn more. By continuing to use the site, you agree to this use of cookies and data.

Hourly Weather Aalen

Today, 14 August, Friday

Time Temperature Precipitation Wind Pressure Humidity
00:00 +19°C° 0.1 mm 1 mps 720 mmHg 83%
01:00 +19°C° 0.1 mm 1 mps 720 mmHg 84%
02:00 +19°C° 0.1 mm 1 mps 720 mmHg 84%
03:00 +19°C° 0.1 mm 1 mps 720 mmHg 84%
04:00 +18°C° 0.1 mm 1 mps 720 mmHg 83%
05:00 +19°C° 0.2 mm 1 mps 720 mmHg 84%
06:00 +20°C° 0.2 mm 1 mps 720 mmHg 84%
07:00 +18°C° 0.2 mm 0 mps 721 mmHg 84%
08:00 +21°C° 0.3 mm 1 mps 721 mmHg 80%
09:00 +23°C° 0.3 mm 2 mps 721 mmHg 76%
10:00 +24°C° 0.3 mm 2 mps 721 mmHg 72%
11:00 +24°C° 0.8 mm 3 mps 721 mmHg 74%
12:00 +24°C° 0.8 mm 3 mps 721 mmHg 75%
13:00 +24°C° 0.8 mm 3 mps 721 mmHg 76%
14:00 +24°C° 1 mm 3 mps 720 mmHg 76%
15:00 +24°C° 1 mm 3 mps 720 mmHg 77%
16:00 +24°C° 1 mm 2 mps 720 mmHg 77%
17:00 +23°C° 0.9 mm 2 mps 720 mmHg 80%
18:00 +22°C° 0.9 mm 1 mps 720 mmHg 82%
19:00 +22°C° 0.9 mm 1 mps 720 mmHg 85%
20:00 +21°C° 0.7 mm 1 mps 720 mmHg 86%
21:00 +20°C° 0.7 mm 1 mps 721 mmHg 88%
22:00 +19°C° 0.7 mm 1 mps 721 mmHg 89%
23:00 +19°C° 0.1 mm 1 mps 721 mmHg 91%

Tomorrow, 15 August, Saturday

Time Temperature Precipitation Wind Pressure Humidity
00:00 +19°C° 0.1 mm 1 mps 721 mmHg 92%
01:00 +18°C° 0.1 mm 1 mps 721 mmHg 93%
02:00 +18°C° 0 mm 1 mps 721 mmHg 94%
03:00 +18°C° 0 mm 1 mps 720 mmHg 94%
04:00 +18°C° 0 mm 1 mps 720 mmHg 95%
05:00 +18°C° 0 mm 1 mps 720 mmHg 93%
06:00 +19°C° 0 mm 1 mps 721 mmHg 92%
07:00 +19°C° 0 mm 1 mps 721 mmHg 91%
08:00 +21°C° 0 mm 1 mps 721 mmHg 84%
09:00 +23°C° 0 mm 1 mps 721 mmHg 77%
10:00 +24°C° 0 mm 1 mps 721 mmHg 71%
11:00 +25°C° 0.1 mm 1 mps 721 mmHg 67%
12:00 +26°C° 0.1 mm 1 mps 721 mmHg 63%
13:00 +27°C° 0.1 mm 1 mps 720 mmHg 59%
14:00 +27°C° 0.1 mm 1 mps 720 mmHg 59%
15:00 +27°C° 0.1 mm 1 mps 720 mmHg 58%
16:00 +27°C° 0.1 mm 1 mps 720 mmHg 58%
17:00 +24°C° 0.1 mm 0 mps 720 mmHg 63%
18:00 +22°C° 0.1 mm 0 mps 719 mmHg 69%
19:00 +21°C° 0.1 mm 0 mps 719 mmHg 74%
20:00 +20°C° 0 mm 0 mps 719 mmHg 77%
21:00 +21°C° 0 mm 1 mps 719 mmHg 81%
22:00 +20°C° 0 mm 1 mps 720 mmHg 84%
23:00 +20°C° 0 mm 1 mps 719 mmHg 85%

Day after tomorrow, 16 August, Sunday

Time Temperature Precipitation Wind Pressure Humidity
00:00 +19°C° 0 mm 1 mps 719 mmHg 86%
01:00 +19°C° 0 mm 1 mps 719 mmHg 88%
02:00 +19°C° 0 mm 1 mps 719 mmHg 89%
03:00 +18°C° 0 mm 1 mps 719 mmHg 90%
04:00 +18°C° 0 mm 1 mps 719 mmHg 90%
05:00 +19°C° 0 mm 1 mps 719 mmHg 89%
06:00 +20°C° 0 mm 1 mps 719 mmHg 87%
07:00 +21°C° 0 mm 1 mps 719 mmHg 85%
08:00 +22°C° 0 mm 1 mps 719 mmHg 78%
09:00 +24°C° 0 mm 1 mps 719 mmHg 72%
10:00 +26°C° 0 mm 1 mps 720 mmHg 65%
11:00 +27°C° 0 mm 1 mps 719 mmHg 61%
12:00 +28°C° 0 mm 1 mps 719 mmHg 56%
13:00 +29°C° 0 mm 1 mps 719 mmHg 52%
14:00 +29°C° 0 mm 1 mps 719 mmHg 51%
15:00 +29°C° 0 mm 1 mps 718 mmHg 50%
16:00 +29°C° 0 mm 1 mps 718 mmHg 48%
17:00 +27°C° 0 mm 1 mps 718 mmHg 56%
18:00 +25°C° 0 mm 1 mps 718 mmHg 64%
19:00 +24°C° 0 mm 1 mps 718 mmHg 71%
20:00 +23°C° 0 mm 1 mps 718 mmHg 73%
21:00 +22°C° 0 mm 1 mps 718 mmHg 75%
22:00 +21°C° 0 mm 1 mps 718 mmHg 77%
23:00 +21°C° 0 mm 1 mps 718 mmHg 79%

17 August, Monday

Time Temperature Precipitation Wind Pressure Humidity
00:00 +20°C° 0 mm 1 mps 718 mmHg 80%
01:00 +20°C° 0 mm 1 mps 717 mmHg 82%
02:00 +20°C° 0.2 mm 1 mps 718 mmHg 83%
03:00 +19°C° 0.2 mm 1 mps 718 mmHg 85%
04:00 +19°C° 0.2 mm 1 mps 718 mmHg 87%
05:00 +19°C° 0.3 mm 1 mps 718 mmHg 88%
06:00 +20°C° 0.3 mm 1 mps 718 mmHg 89%
07:00 +20°C° 0.3 mm 1 mps 718 mmHg 91%
08:00 +21°C° 0 mm 1 mps 719 mmHg 88%
09:00 +21°C° 0 mm 1 mps 719 mmHg 85%
10:00 +22°C° 0 mm 1 mps 719 mmHg 82%
11:00 +23°C° 0 mm 2 mps 719 mmHg 76%
12:00 +24°C° 0 mm 2 mps 719 mmHg 69%
13:00 +25°C° 0 mm 2 mps 719 mmHg 63%
14:00 +25°C° 0.6 mm 2 mps 719 mmHg 68%
15:00 +24°C° 0.6 mm 3 mps 719 mmHg 73%
16:00 +24°C° 0.6 mm 3 mps 718 mmHg 78%
17:00 +21°C° 1.1 mm 3 mps 718 mmHg 83%
18:00 +20°C° 1.1 mm 3 mps 719 mmHg 87%
19:00 +19°C° 1.1 mm 3 mps 719 mmHg 92%
20:00 +18°C° 0.8 mm 3 mps 719 mmHg 92%
21:00 +18°C° 0.8 mm 3 mps 719 mmHg 92%
22:00 +17°C° 0.8 mm 4 mps 719 mmHg 93%
23:00 +17°C° 0.3 mm 3 mps 719 mmHg 93%

18 August, Tuesday

Time Temperature Precipitation Wind Pressure Humidity
00:00 +17°C° 0.3 mm 3 mps 719 mmHg 93%
01:00 +17°C° 0.3 mm 2 mps 719 mmHg 93%
02:00 +16°C° 0 mm 2 mps 719 mmHg 92%
03:00 +16°C° 0 mm 2 mps 719 mmHg 91%
04:00 +16°C° 0 mm 2 mps 719 mmHg 91%
05:00 +16°C° 0 mm 2 mps 719 mmHg 90%
06:00 +17°C° 0 mm 3 mps 719 mmHg 90%
07:00 +17°C° 0 mm 3 mps 720 mmHg 90%
08:00 +18°C° 0 mm 3 mps 720 mmHg 83%
09:00 +19°C° 0 mm 4 mps 720 mmHg 77%
10:00 +20°C° 0 mm 5 mps 720 mmHg 70%
11:00 +21°C° 0 mm 5 mps 720 mmHg 65%
12:00 +22°C° 0 mm 5 mps 720 mmHg 60%
13:00 +23°C° 0 mm 5 mps 720 mmHg 55%
14:00 +23°C° 0 mm 5 mps 720 mmHg 55%
15:00 +23°C° 0 mm 4 mps 720 mmHg 55%
16:00 +23°C° 0 mm 4 mps 719 mmHg 56%
17:00 +21°C° 0.1 mm 3 mps 719 mmHg 63%
18:00 +20°C° 0.1 mm 3 mps 719 mmHg 70%
19:00 +18°C° 0.1 mm 2 mps 719 mmHg 77%
20:00 +18°C° 0 mm 2 mps 719 mmHg 79%
21:00 +17°C° 0 mm 2 mps 720 mmHg 80%
22:00 +16°C° 0 mm 2 mps 720 mmHg 81%
23:00 +15°C° 0 mm 2 mps 720 mmHg 82%

19 August, Wednesday

Time Temperature Precipitation Wind Pressure Humidity
00:00 +15°C° 0 mm 2 mps 720 mmHg 83%
01:00 +15°C° 0 mm 2 mps 719 mmHg 84%
02:00 +15°C° 0 mm 2 mps 719 mmHg 86%
03:00 +14°C° 0 mm 2 mps 719 mmHg 87%
04:00 +14°C° 0 mm 1 mps 719 mmHg 89%
05:00 +15°C° 0 mm 1 mps 719 mmHg 87%
06:00 +15°C° 0 mm 1 mps 719 mmHg 85%
07:00 +16°C° 0 mm 1 mps 719 mmHg 83%
08:00 +18°C° 0.1 mm 2 mps 719 mmHg 76%
09:00 +19°C° 0.1 mm 3 mps 719 mmHg 69%
10:00 +21°C° 0.1 mm 4 mps 719 mmHg 61%
11:00 +22°C° 0.1 mm 4 mps 719 mmHg 59%
12:00 +23°C° 0.1 mm 4 mps 719 mmHg 57%
13:00 +23°C° 0.1 mm 4 mps 719 mmHg 55%
14:00 +23°C° 0 mm 4 mps 719 mmHg 54%
15:00 +25°C° 0 mm 4 mps 718 mmHg 54%
16:00 +25°C° 0 mm 4 mps 718 mmHg 54%
17:00 +22°C° 0 mm 3 mps 718 mmHg 60%
18:00 +21°C° 0 mm 2 mps 718 mmHg 67%
19:00 +19°C° 0 mm 2 mps 718 mmHg 73%
20:00 +19°C° 0 mm 1 mps 718 mmHg 76%
21:00 +18°C° 0 mm 1 mps 718 mmHg 78%
22:00 +16°C° 0 mm 1 mps 719 mmHg 80%
23:00 +16°C° 0 mm 1 mps 718 mmHg 81%
Show more